Skip Page Navigation
NASA JPL Caltech
NASA Logo - Jet Propulsion Laboratory + View the NASA Portal
+ Near-Earth Object (NEO) Program
Search JPL
JPL Home Earth Solar System Stars & Galaxies Technology
JPL Solar System Dynamics
BODIES ORBITS EPHEMERIDES TOOLS PHYSICAL DATA DISCOVERY FAQ SITE MAP
JPL Small-Body Database Browser
Search: [ help ]  
44263 Nansouty (1998 QR53)
Classification: Main-belt Asteroid          SPK-ID: 2044263
Ephemeris | Orbit Diagram | Orbital Elements | Physical Parameters | Discovery Circumstances ]

[ show orbit diagram ]
Orbital Elements at Epoch 2456400.5 (2013-Apr-18.0) TDB
Reference: MPO257172 (heliocentric ecliptic J2000)
 Element Value Uncertainty (1-sigma)   Units 
e 0.1449993 n/a  
a 2.7485595 n/a AU
q 2.3500203 n/a AU
i 8.34026 n/a deg
node 334.98837 n/a deg
peri 76.75637 n/a deg
M 21.85026 n/a deg
tp 2456299.4793242
(2013-Jan-06.97932420)
n/a JED
period 1664.3940753
4.56
n/a
n/a
d
yr
n 0.21629493 n/a deg/d
Q 3.1470987 n/a AU
  Orbit Determination Parameters
   # obs. used (total)      574  
   first obs. used      1998-??-??  
   last obs. used      2013-03-02  
   # oppositions      10  
   planetary ephem.      DE403  
   condition code      0  
   fit RMS      0.57  
   data source      MPC:mpn  
   producer      MPCLINUX  

Additional Information
 T_jup = 3.316 

Ephemeris | Orbit Diagram | Orbital Elements | Physical Parameters | Discovery Circumstances ]

Physical Parameter Table
Parameter Symbol Value Units Sigma Reference Notes
absolute magnitude H 14.1 mag n/a MPO257172  

44263 Nansouty           Discovered 1998 Aug. 28 by P. Dupouy and F. Marechal at the Observatoire de Dax.
Charles Marie Etienne Champion, comte de Nansouty (1815-1895), was a French general and meteorologist. After his military retirement, he dedicated himself to meteorology, installing a meteorological station 1500 feet below the top of the Pic du Midi in 1873. He was a cofounder of the Observatoire du Pic du Midi in 1878.
NOTE: some special characters may not display properly (any characters within {} are an attempt to place the proper accent above a character)
Reference: 20090806/MPCPages.arcLast Updated: 2011-05-09
Ephemeris | Orbit Diagram | Orbital Elements | Physical Parameters | Discovery Circumstances ]
ABOUT SSD CREDITS/AWARDS PRIVACY/COPYRIGHT GLOSSARY LINKS
FirstGov 2013-May-20 17:04 UT
(server date/time)  
NASA Home Page
Site Manager:   Donald K. Yeomans
Webmaster  Alan B. Chamberlin